Dubois, WY

3:41 AM MDT on August 26, 2016 (GMT -0600)
Dubois Muni, Dubois, WY

Weather History for KDUB - April, 2014

Change the Weather History Date:

Wednesday, April 30, 2014

  Actual Average (KJAC) Record (KJAC)
Temperature  
Mean Temperature 38 °F -  
Max Temperature 50 °F 53 °F 75 °F (1987)
Min Temperature 26 °F 24 °F 12 °F (1975)
Degree Days  
Heating Degree Days 27    
Moisture  
Dew Point 9 °F    
Average Humidity 36    
Maximum Humidity 64    
Minimum Humidity 13    
Precipitation  
Precipitation 0.00 in - - ()
Sea Level Pressure  
Sea Level Pressure 30.40 in    
Wind  
Wind Speed 9 mph (NW)    
Max Wind Speed 17 mph    
Max Gust Speed 30 mph    
Visibility 10 miles    
Events      
Averages and records for this station are not official NWS values.
T = Trace of Precipitation, MM = Missing Value Source: NWS Daily Summary

Daily Weather History Graph

Daily Weather History Graph

Search for Another Location

Airport or City:

Trip Planner

Search our weather history database for the weather conditions in past years. The results will help you decide how hot, cold, wet, or windy it might be!

Date:

Astronomy

Apr. 30, 2014 Rise Set
Actual Time 6:12 AM MDT 8:19 PM MDT
Civil Twilight 5:41 AM MDT 8:51 PM MDT
Nautical Twilight 5:02 AM MDT 9:30 PM MDT
Astronomical Twilight 4:20 AM MDT 10:12 PM MDT
Moon 7:15 AM MDT (4/30) 10:03 PM MDT (4/30)
Length of Visible Light 15h 09m
Length of Day
14h 07m
Waxing Crescent, 3% of the Moon is Illuminated
Apr 30
Waxing Crescent
May 6
First Quarter
May 14
Full
May 21
Last Quarter
May 28
New

Hourly Weather History & Observations

Time (MDT) Temp. Windchill Dew Point Humidity Pressure Visibility Wind Dir Wind Speed Gust Speed Precip Events Conditions
12:15 AM 32.0 °F 22.5 °F 17.6 °F 55% 30.44 in 10.0 mi WNW 12.7 mph 17.3 mph N/A   Overcast
12:35 AM 32.0 °F 22.5 °F 17.6 °F 55% 30.44 in 10.0 mi NW 12.7 mph - N/A   Overcast
12:55 AM 32.0 °F 24.2 °F 17.6 °F 55% 30.44 in 10.0 mi WNW 9.2 mph - N/A   Overcast
1:15 AM 32.0 °F 25.6 °F 19.4 °F 60% 30.44 in 10.0 mi NW 6.9 mph - N/A   Overcast
1:35 AM 32.0 °F 23.6 °F 19.4 °F 60% 30.45 in 10.0 mi West 10.4 mph - N/A   Overcast
1:55 AM 32.0 °F 23.6 °F 19.4 °F 60% 30.45 in 10.0 mi West 10.4 mph - N/A   Overcast
2:15 AM 30.2 °F 21.9 °F 19.4 °F 64% 30.45 in 10.0 mi WNW 9.2 mph - N/A   Scattered Clouds
2:35 AM 30.2 °F 21.9 °F 19.4 °F 64% 30.44 in 10.0 mi WNW 9.2 mph - N/A   Scattered Clouds
2:55 AM 30.2 °F 20.2 °F 17.6 °F 60% 30.44 in 10.0 mi WNW 12.7 mph - N/A   Scattered Clouds
3:15 AM 30.2 °F 19.8 °F 17.6 °F 60% 30.44 in 10.0 mi West 13.8 mph 18.4 mph N/A   Clear
3:35 AM 30.2 °F 20.8 °F 17.6 °F 60% 30.44 in 10.0 mi WNW 11.5 mph - N/A   Clear
3:55 AM 28.4 °F 19.1 °F 17.6 °F 64% 30.44 in 10.0 mi NW 10.4 mph - N/A   Scattered Clouds
4:15 AM 28.4 °F 18.0 °F 17.6 °F 64% 30.44 in 10.0 mi NW 12.7 mph - N/A   Clear
4:35 AM 28.4 °F 19.1 °F 17.6 °F 64% 30.44 in 10.0 mi NNW 10.4 mph - N/A   Clear
4:55 AM 28.4 °F 18.5 °F 17.6 °F 64% 30.44 in 10.0 mi NW 11.5 mph - N/A   Clear
5:15 AM 28.4 °F 19.1 °F 15.8 °F 59% 30.44 in 10.0 mi NW 10.4 mph - N/A   Clear
5:35 AM 28.4 °F 19.1 °F 15.8 °F 59% 30.44 in 10.0 mi NW 10.4 mph - N/A   Clear
5:55 AM 26.6 °F 17.5 °F 15.8 °F 64% 30.44 in 10.0 mi NNW 9.2 mph - N/A   Clear
6:15 AM 26.6 °F 16.8 °F 15.8 °F 64% 30.44 in 10.0 mi NW 10.4 mph - N/A   Clear
6:35 AM 26.6 °F 16.2 °F 15.8 °F 64% 30.44 in 10.0 mi NW 11.5 mph - N/A   Clear
6:55 AM 28.4 °F 20.4 °F 17.6 °F 64% 30.44 in 10.0 mi NNW 8.1 mph - N/A   Clear
7:15 AM 28.4 °F 20.4 °F 17.6 °F 64% 30.44 in 10.0 mi North 8.1 mph - N/A   Clear
7:35 AM 30.2 °F 22.6 °F 17.6 °F 60% 30.45 in 10.0 mi NW 8.1 mph - N/A   Clear
7:55 AM 32.0 °F 24.8 °F 15.8 °F 51% 30.45 in 10.0 mi NNW 8.1 mph - N/A   Clear
8:15 AM 32.0 °F 24.2 °F 14.0 °F 48% 30.44 in 10.0 mi NNW 9.2 mph - N/A   Clear
8:35 AM 33.8 °F 26.4 °F 10.4 °F 38% 30.44 in 10.0 mi NNW 9.2 mph - N/A   Clear
8:55 AM 33.8 °F 27.7 °F 10.4 °F 38% 30.44 in 10.0 mi NW 6.9 mph - N/A   Clear
9:15 AM 35.6 °F 31.7 °F 8.6 °F 33% 30.44 in 10.0 mi NW 4.6 mph - N/A   Clear
9:35 AM 35.6 °F - 3.2 °F 26% 30.44 in 10.0 mi Calm Calm - N/A   Clear
9:55 AM 37.4 °F 34.9 °F 5.0 °F 26% 30.44 in 10.0 mi North 3.5 mph - N/A   Clear
10:15 AM 37.4 °F - 3.2 °F 24% 30.44 in 10.0 mi Calm Calm - N/A   Clear
10:35 AM 41.0 °F 39.0 °F 3.2 °F 21% 30.44 in 10.0 mi SSE 3.5 mph - N/A   Clear
10:55 AM 39.2 °F 37.0 °F 1.4 °F 21% 30.44 in 10.0 mi West 3.5 mph - N/A   Clear
11:15 AM 41.0 °F - 1.4 °F 19% 30.43 in 10.0 mi Calm Calm - N/A   Clear
11:35 AM 41.0 °F 37.1 °F 1.4 °F 19% 30.42 in 10.0 mi NNE 5.8 mph - N/A   Clear
11:55 AM 42.8 °F - -0.4 °F 16% 30.42 in 10.0 mi Calm Calm - N/A   Clear
12:15 PM 42.8 °F 38.0 °F -0.4 °F 16% 30.41 in 10.0 mi SW 8.1 mph 17.3 mph N/A   Clear
12:35 PM 46.4 °F 43.5 °F 1.4 °F 16% 30.41 in 10.0 mi ESE 5.8 mph - N/A   Clear
12:55 PM 44.6 °F 42.2 °F -2.2 °F 14% 30.40 in 10.0 mi South 4.6 mph - N/A   Clear
1:15 PM 46.4 °F 40.7 °F -0.4 °F 14% 30.38 in 10.0 mi North 12.7 mph 19.6 mph N/A   Clear
1:30 PM 46.4 °F 39.8 °F -0.4 °F 14% 30.38 in 10.0 mi NNE 16.1 mph 23.0 mph N/A   Clear
1:55 PM 46.4 °F 39.5 °F -0.4 °F 14% 30.37 in 10.0 mi ENE 17.3 mph 27.6 mph N/A   Clear
2:15 PM 50.0 °F - 1.4 °F 14% 30.38 in 10.0 mi NNE 15.0 mph 29.9 mph N/A   Clear
2:35 PM 48.2 °F - -0.4 °F 13% 30.38 in 10.0 mi NE 15.0 mph 29.9 mph N/A   Clear
2:55 PM 50.0 °F - 1.4 °F 14% 30.37 in 10.0 mi NE 6.9 mph 21.9 mph N/A   Clear
3:15 PM 48.2 °F - 1.4 °F 15% 30.37 in 10.0 mi NNE 8.1 mph - N/A   Clear
3:35 PM 50.0 °F - 1.4 °F 14% 30.37 in 10.0 mi WNW 8.1 mph - N/A   Clear
3:55 PM 50.0 °F - 3.2 °F 15% 30.36 in 10.0 mi NW 10.4 mph 18.4 mph N/A   Clear
4:15 PM 50.0 °F - 1.4 °F 14% 30.36 in 10.0 mi NW 10.4 mph 17.3 mph N/A   Clear
4:35 PM 50.0 °F - 1.4 °F 14% 30.35 in 10.0 mi NNW 5.8 mph - N/A   Clear
4:55 PM 50.0 °F - 3.2 °F 15% 30.35 in 10.0 mi NNW 8.1 mph - N/A   Clear
5:15 PM 50.0 °F - 1.4 °F 14% 30.36 in 10.0 mi NNW 5.8 mph 16.1 mph N/A   Clear
5:35 PM 50.0 °F - 3.2 °F 15% 30.36 in 10.0 mi NNW 9.2 mph 17.3 mph N/A   Clear
5:55 PM 50.0 °F - 3.2 °F 15% 30.35 in 10.0 mi NW 9.2 mph - N/A   Clear
6:15 PM 50.0 °F - 3.2 °F 15% 30.35 in 10.0 mi North 5.8 mph - N/A   Clear
6:35 PM 48.2 °F - 3.2 °F 16% 30.35 in 10.0 mi NNW 4.6 mph - N/A   Clear
6:55 PM 48.2 °F - 3.2 °F 16% 30.35 in 10.0 mi North 6.9 mph - N/A   Clear
7:15 PM 46.4 °F 42.4 °F 5.0 °F 18% 30.35 in 10.0 mi NNW 8.1 mph - N/A   Clear
7:35 PM 46.4 °F 41.5 °F 5.0 °F 18% 30.35 in 10.0 mi NNW 10.4 mph - N/A   Clear
7:55 PM 44.6 °F 40.2 °F 5.0 °F 20% 30.35 in 10.0 mi WNW 8.1 mph - N/A   Clear
8:15 PM 41.0 °F 34.7 °F 5.0 °F 23% 30.35 in 10.0 mi WNW 10.4 mph - N/A   Clear
8:35 PM 41.0 °F 35.8 °F 5.0 °F 23% 30.35 in 10.0 mi WNW 8.1 mph - N/A   Clear
8:55 PM 37.4 °F 31.4 °F 6.8 °F 28% 30.36 in 10.0 mi NW 8.1 mph - N/A   Clear
9:15 PM 37.4 °F 33.8 °F 6.8 °F 28% 30.37 in 10.0 mi NW 4.6 mph - N/A   Clear
9:35 PM 33.8 °F - 8.6 °F 35% 30.37 in 10.0 mi Calm Calm - N/A   Clear
9:55 PM 33.8 °F - 8.6 °F 35% 30.38 in 10.0 mi Calm Calm - N/A   Clear
10:15 PM 35.6 °F 29.9 °F 10.4 °F 35% 30.38 in 10.0 mi NNW 6.9 mph - N/A   Clear
10:35 PM 32.0 °F 28.7 °F 12.2 °F 44% 30.38 in 10.0 mi NNW 3.5 mph - N/A   Clear
10:55 PM 32.0 °F 28.7 °F 12.2 °F 44% 30.38 in 10.0 mi NNW 3.5 mph - N/A   Clear
11:15 PM 32.0 °F - 12.2 °F 44% 30.38 in 10.0 mi Calm Calm - N/A   Clear
11:35 PM 32.0 °F - 14.0 °F 48% 30.38 in 10.0 mi Calm Calm - N/A   Clear
11:55 PM 30.2 °F 23.4 °F 14.0 °F 51% 30.37 in 10.0 mi WNW 6.9 mph - N/A   Clear